Regional Weather Roundup
Issued by NWS

Current Version | Previous Version | Text Only | Print | Product List | Glossary On
Versions: 1 2 3 4 5 6 7 8 9 10 11 12 13 14 15 16 17 18 19 20 21 22 23 24 25 26 27 28 29 30 31 32 33 34 35 36 37 38 39 40 41 42 43 44 45 46 47 48 49 50
000
ASUS45 KABQ 301310
RWRNM
NEW MEXICO REGIONAL WEATHER ROUNDUP
NATIONAL WEATHER SERVICE ALBUQUERQUE NM
700 AM MDT FRI SEP 30 2022

NOTE: "FAIR" MEANS FEW OR NO CLOUDS BELOW 12,000 FEET AGL WITH NO
       SIGNIFICANT WEATHER OR OBSTRUCTIONS TO VISION.

      THIS PRODUCT IS RELEASED AS TWO VERSIONS.  ONE VERSION NEAR
      THE TOP OF THE HOUR CONTAINING PRELIMINARY DATA FROM ALBUQUERQUE
      AND OTHER STATIONS.  A FINAL VERSION WITH ADDITIONAL DATA IS
      ISSUED ABOUT 10 MINUTES AFTER THE HOUR.

NMZ201-203-204-210>218-301400-
NORTHWEST PLATEAU/NORTHCENTRAL MOUNTAINS

CITY           SKY/WX    TMP DP  RH WIND       PRES   REMARKS
FARMINGTON     FAIR      50  38  63 E8        30.17R
LOS ALAMOS     FAIR      52  27  36 CALM      30.29S
SANTA FE       FAIR      43  28  55 NE6       30.25S
TAOS           FAIR      37  29  72 N8        30.32R WCI  31
ANGEL FIRE     FAIR      24  21  89 CALM      30.38S

$$
NMZ202-205>209-241-402-403-301400-
WESTCENTRAL MOUNTAINS/SOUTHWEST MOUNTAINS

CITY           SKY/WX    TMP DP  RH WIND       PRES   REMARKS
GALLUP         FAIR      44  33  65 CALM      30.25S
GRANTS         FAIR      37  29  71 CALM      30.28S
SILVER CITY    FAIR      58  42  54 N6        30.19S

$$
NMZ407-409-411-412-301400-
SOUTHERN DESERTS

CITY           SKY/WX    TMP DP  RH WIND       PRES   REMARKS
DEMING         FAIR      62  37  39 E8        30.14R
LAS CRUCES     FAIR      59  34  39 E6        30.16S
HOLLOMAN AFB   FAIR      50  37  60 NW5       30.18R
ALAMOGORDO     FAIR      55  39  54 W6        30.16R
T OR C         FAIR      56  35  45 NW9       30.17S

$$
NMZ219>223-301400-
CENTRAL VALLEYS/CENTRAL HIGHLANDS

CITY           SKY/WX    TMP DP  RH WIND       PRES   REMARKS
ALBUQUERQUE    FAIR      53  37  54 NW3       30.22R
DOUBLE EAGLE   CLEAR     45  30  57 VRB5      30.23S
MORIARTY ARPT  FAIR      32  27  81 NW3       30.28R
CLINES CORNERS   N/A     46  32  58 W10       30.30R
BELEN          NOT AVBL
SOCORRO        FAIR      51  35  53 CALM      30.19S

$$
NMZ224>226-239-240-301400-
SOUTHCENTRAL MOUNTAINS

CITY           SKY/WX    TMP DP  RH WIND       PRES   REMARKS
RUIDOSO          N/A     46  34  61 CALM      30.31R

$$
NMZ227>231-301400-
NORTHEAST HIGHLANDS/NORTHEAST PLAINS

CITY           SKY/WX    TMP DP  RH WIND       PRES   REMARKS
LAS VEGAS      FAIR      45  28  51 S9        30.26S
RATON          FAIR      39  31  72 NE5       30.21S
CLAYTON        FAIR      54  38  54 SW12      30.13F

$$
NMZ232>237-301400-
EASTCENTRAL PLAINS

CITY           SKY/WX    TMP DP  RH WIND       PRES   REMARKS
SANTA ROSA     FAIR      50  37  59 SE9       30.19R
TUCUMCARI      FAIR      59  42  53 SW12      30.12S
CANNON AFB     FAIR      56  41  58 W5        30.18S
CLOVIS AIRPORT FAIR      52  41  66 W8        30.19S

$$
NMZ028-029-033-238-301400-
SOUTHEAST PLAINS

CITY           SKY/WX    TMP DP  RH WIND       PRES   REMARKS
ROSWELL        FAIR      58  43  57 CALM      30.14S
ARTESIA        FAIR      57  43  58 CALM      30.16S
CARLSBAD       FAIR      56  41  57 W5        30.12S
HOBBS          CLEAR     55  41  58 SW6       30.15S


$$



USA.gov is the U.S. government's official web portal to all federal, state and local government web resources and services.